EW5773 Weather Reports


Display with metric or nautical units.
time (UTC)temp
F
wind
direction
speed
MPH
gust
MPH
rain 1hr
in
rain 24hr
in
rain mn
in
humidity
%
barometer
mb
20260903123011 76 207 6.0 14.0 0.00 0.00 0.00 68 1022.0
20260903121510 75 223 9.0 18.0 0.00 0.00 0.00 68 1022.1
20260903120004 76 230 8.0 16.0 0.00 0.00 0.00 67 1022.0
20260903114509 76 360 6.0 17.0 0.00 0.00 0.00 67 1022.0
20260903113010 77 227 5.0 18.0 0.00 0.00 0.00 65 1022.1
20260903111517 76 246 6.0 14.0 0.00 0.00 0.00 67 1022.1
20260903110018 75 240 5.0 16.0 0.00 0.00 0.00 67 1022.2
20260903104510 74 192 8.0 14.0 0.00 0.00 0.00 69 1022.2
20260903103010 74 277 6.0 14.0 0.00 0.00 0.00 68 1022.3
20260903101503 73 230 5.0 14.0 0.00 0.00 0.00 69 1022.1
20260903100003 72 213 7.0 16.0 0.00 0.00 0.00 70 1022.0
20260903094513 71 237 9.0 13.0 0.00 0.00 0.00 71 1022.0
20260903093006 71 195 6.0 12.0 0.00 0.00 0.00 72 1022.1
20260903091511 70 217 6.0 15.0 0.00 0.00 0.00 74 1022.2
20260903090005 69 236 7.0 14.0 0.00 0.00 0.00 75 1022.2
20260903084604 69 240 9.0 16.0 0.00 0.00 0.00 76 1022.1
20260903083021 68 229 9.0 16.0 0.00 0.00 0.00 78 1022.3
20260903081520 67 216 8.0 17.0 0.00 0.00 0.00 78 1022.2
20260903080019 67 236 7.0 16.0 0.00 0.00 0.00 79 1022.5
20260903074519 66 210 5.0 17.0 0.00 0.00 0.00 81 1022.3
20260903073013 64 231 4.0 9.0 0.00 0.00 0.00 84 1022.2
20260903071511 63 193 2.0 7.0 0.00 0.00 0.00 85 1022.1
20260903070008 62 212 3.0 6.0 0.00 0.00 0.00 85 1022.1
20260903064508 61 199 3.0 6.0 0.00 0.00 0.00 85 1022.0
20260903063006 60 212 2.0 5.0 0.00 0.00 0.00 85 1022.0
20260903061506 60 221 2.0 6.0 0.00 0.00 0.00 85 1022.0
20260903060005 59 228 1.0 5.0 0.00 0.00 0.00 85 1021.9
20260903054504 59 229 3.0 8.0 0.00 0.00 0.00 84 1021.8
20260903053105 59 229 4.0 8.0 0.00 0.00 0.00 84 1021.6
20260903051505 59 219 2.0 7.0 0.00 0.00 0.00 84 1021.3
20260903044606 59 238 5.0 9.0 0.00 0.00 0.00 84 1021.4
20260903043110 59 215 2.0 7.0 0.00 0.00 0.00 84 1021.1
20260903041559 59 208 2.0 5.0 0.00 0.00 0.00 84 1021.1
20260903040055 59 202 2.0 6.0 0.00 0.00 0.00 83 1020.9
20260903034556 59 203 3.0 6.0 0.00 0.00 0.00 82 1021.0
20260903033048 60 215 2.0 5.0 0.00 0.00 0.00 81 1021.4
20260903031549 60 217 1.0 6.0 0.00 0.00 0.00 80 1021.6
20260903030018 60 216 2.0 5.0 0.00 0.00 0.00 80 1021.3
20260903024517 60 219 2.0 5.0 0.00 0.00 0.00 80 1021.3
20260903023021 60 218 2.0 5.0 0.00 0.00 0.00 80 1021.1
20260903021515 60 217 3.0 5.0 0.00 0.00 0.00 79 1020.8
20260903020031 60 218 2.0 4.0 0.00 0.00 0.00 79 1021.2
20260903014511 61 216 1.0 5.0 0.00 0.00 0.00 78 1021.1
20260903013036 61 213 2.0 5.0 0.00 0.00 0.00 77 1021.2
20260903011512 60 211 2.0 4.0 0.00 0.00 0.00 78 1021.2
20260903010008 61 208 2.0 5.0 0.00 0.00 0.00 77 1021.0
20260903004505 61 207 2.0 5.0 0.00 0.00 0.00 76 1021.1
20260903003003 62 209 2.0 7.0 0.00 0.00 0.00 75 1021.3
20260903001505 62 212 2.0 5.0 0.00 0.00 0.00 76 1021.2
20260903000004 62 207 2.0 4.0 0.00 0.00 0.00 76 1021.1
20260902234602 62 205 3.0 6.0 0.00 0.00 0.00 75 1021.0
20260902233009 63 210 3.0 5.0 0.00 0.00 0.00 74 1021.1
20260902231519 63 215 3.0 5.0 0.00 0.00 0.00 74 1021.3
20260902230018 63 215 2.0 4.0 0.00 0.00 0.00 74 1021.2
20260902224516 63 215 2.0 4.0 0.00 0.00 0.00 73 1021.3
20260902223023 63 215 1.0 4.0 0.00 0.00 0.00 72 1021.4
20260902221519 64 215 2.0 4.0 0.00 0.00 0.00 72 1021.3
20260902220045 64 216 2.0 5.0 0.00 0.00 0.00 71 1021.4
20260902214509 65 221 3.0 5.0 0.00 0.00 0.00 69 1021.5
20260902213009 66 225 1.0 4.0 0.00 0.00 0.00 67 1021.3
20260902211512 67 225 1.0 4.0 0.00 0.00 0.00 65 1021.3
20260902210007 68 223 0.0 4.0 0.00 0.00 0.00 63 1021.3
20260902204512 69 223 0.0 4.0 0.00 0.00 0.00 61 1021.1
20260902203008 69 227 3.0 5.0 0.00 0.00 0.00 60 1021.0
20260902201503 69 230 2.0 3.0 0.00 0.00 0.00 59 1021.0
20260902200004 70 231 1.0 4.0 0.00 0.00 0.00 58 1020.8
20260902194503 70 231 0.0 3.0 0.00 0.00 0.00 58 1020.8
20260902193004 71 231 0.0 2.0 0.00 0.00 0.00 57 1020.8
20260902191504 71 231 1.0 3.0 0.00 0.00 0.00 56 1020.8
20260902190005 72 231 1.0 3.0 0.00 0.00 0.00 55 1020.7
20260902184605 72 231 2.0 4.0 0.00 0.00 0.00 54 1020.7
20260902183112 73 232 1.0 4.0 0.00 0.00 0.00 53 1020.6
20260902181517 74 230 1.0 5.0 0.00 0.00 0.00 51 1020.6
20260902180016 75 232 3.0 8.0 0.00 0.00 0.00 49 1020.7
20260902174523 75 235 3.0 10.0 0.00 0.00 0.00 48 1020.5
20260902173023 76 225 5.0 11.0 0.00 0.00 0.00 47 1020.5
20260902171512 76 242 4.0 10.0 0.00 0.00 0.00 47 1020.6
20260902170013 77 226 4.0 11.0 0.00 0.00 0.00 46 1020.4
20260902164520 77 246 4.0 10.0 0.00 0.00 0.00 47 1020.5
20260902163041 78 188 3.0 10.0 0.00 0.00 0.00 46 1020.5
20260902161510 78 259 6.0 12.0 0.00 0.00 0.00 44 1020.6
20260902160010 78 242 6.0 10.0 0.00 0.00 0.00 44 1020.7
20260902154508 78 228 5.0 15.0 0.00 0.00 0.00 45 1020.7
20260902153009 78 129 4.0 10.0 0.00 0.00 0.00 46 1020.7
20260902151505 77 230 8.0 12.0 0.00 0.00 0.00 44 1020.9
20260902150006 78 223 6.0 11.0 0.00 0.00 0.00 46 1021.0
20260902144502 78 213 4.0 11.0 0.00 0.00 0.00 45 1021.0
20260902143004 77 194 4.0 10.0 0.00 0.00 0.00 46 1020.9
20260902141503 78 219 5.0 11.0 0.00 0.00 0.00 45 1020.9
20260902134501 77 225 4.0 12.0 0.00 0.00 0.00 46 1021.0
20260902133010 77 233 0.0 10.0 0.00 0.00 0.00 45 1021.2
20260902131514 76 198 6.0 10.0 0.00 0.00 0.00 47 1021.4
20260902130016 75 142 3.0 10.0 0.00 0.00 0.00 49 1021.4
20260902124517 76 123 2.0 8.0 0.00 0.00 0.00 47 1021.4